Regional Weather Roundup
Issued by NWS

Home | Current Version | Previous Version | Graphics & Text | Print | Product List | Glossary On
Versions: 1 2 3 4 5 6 7 8 9 10 11 12 13 14 15 16 17 18 19 20 21 22 23 24 25 26 27 28 29 30 31 32 33 34 35 36 37 38 39 40 41 42 43 44 45 46 47 48 49 50
519
ASUS44 KLIX 240210
RWRLA
LOUISIANA WEATHER ROUNDUP
NATIONAL WEATHER SERVICE NEW ORLEANS LA
900 PM CDT WED JUL 23 2014

NOTE: "FAIR" INDICATES FEW OR NO CLOUDS BELOW 12,000 FEET WITH NO
      SIGNIFICANT WEATHER AND/OR OBSTRUCTIONS TO VISIBILITY.
      SKY/WX - SKY CONDITION AND SIGNIFICANT WEATHER.
      TMP - AIR TEMPERATURE.    DP   - DEWPOINT TEMPERATURE.
      RH  - RELATIVE HUMIDITY.  PRES - PRESSURE.
      HX  - HEAT INDEX.         WCI  - WIND CHILL INDEX.

*  THESE STATIONS ARE NOT NWS OR FAA STATIONS AND ARE NOT UNDER
   NWS QUALITY CONTROL.

LAZ040-048-061>063-065-066-069-240300-
SOUTHEAST LOUISIANA

CITY           SKY/WX    TMP DP  RH WIND       PRES   REMARKS
N.O. AUDUBON     N/A     81  73  76 MISG        N/A
N.O. INTL ARPT MOCLDY    80  71  74 CALM      30.02R
N.O. LAKEFRONT PTCLDY    80  72  76 SE3       30.02R
N.O. DOWNTOWN* FAIR      81  68  65 CALM      30.02R
SLIDELL        PTCLDY    77  72  84 CALM      30.02R
BATON ROUGE    CLEAR     80  73  79 CALM      30.00S
BOOTHVILLE       N/A     79  72  79 S6        30.01R
BELLE CHASSE   MOCLDY    77  72  84 CALM      30.01R
BOGALUSA*      FAIR      79  74  85 CALM      30.03R
GALLIANO*      NOT AVBL
NEW ROADS*     FAIR      78  74  87 CALM      29.99S
GONZALES*      FAIR      77  77 100 CALM      30.01R
HAMMOND*       PTCLDY    79  72  78 CALM      30.03R
HOUMA*         MOCLDY    78  71  80 E3        30.01R
PORT FOURCHON* CLEAR     81  73  78 SW3       30.03R

$$

LAZ041-044-053-054-240300-
SOUTHWEST LOUISIANA

CITY           SKY/WX    TMP DP  RH WIND       PRES   REMARKS
LAKE CHARLES   PTCLDY    81  72  74 NW3       30.00R
LAFAYETTE      PTCLDY    80  74  81 CALM      30.00R
PATTERSON      PTCLDY    77  75  94 NE5       30.05R
SALT POINT       N/A     81  76  84 CALM      30.00R
NEW IBERIA     PTCLDY    80  75  84 NE3       30.01R
CHENAULT AIRPK PTCLDY    82  73  74 NW8       30.01R

$$

LAZ027-028-240300-
CENTRAL LOUISIANA

CITY           SKY/WX    TMP DP  RH WIND       PRES   REMARKS
FORT POLK      LGT RAIN  79  72  78 NW9       30.01R
ALEXANDRIA INT CLOUDY    79  69  71 NE12      30.00R
ALEXANDRIA     TSTM      75  70  84 N6G29     30.02R

$$

LAZ001-002-240300-
NORTHWEST LOUISIANA

CITY           SKY/WX    TMP DP  RH WIND       PRES   REMARKS
SHREVEPORT     CLOUDY    72  68  87 N12       30.09F
BARKSDALE AFB  CLOUDY    71  68  89 N12       30.09F
DTN SHREVEPORT NOT AVBL

$$

LAZ014-016-240300-
NORTHEAST LOUISIANA

CITY           SKY/WX    TMP DP  RH WIND       PRES   REMARKS
MONROE         CLOUDY    77  68  73 N18G25    30.02R
TALLULAH       MOCLDY    78  76  93 CALM      30.00S

$$




USA.gov is the U.S. government's official web portal to all federal, state and local government web resources and services.